{"data":{"norad_id":56688,"intl_designator":"2023-067A","name":"STARLINK-30122","alt_names":[],"object_type":"PAYLOAD","status":"ACTIVE","operator":null,"country":"US","launch_date":"2023-05-19","launch_site_code":"AFETR","launch_vehicle":null,"mission":null,"orbit_class":"UNKNOWN","rcs_meters":null,"size_class":null,"mass_kg":null,"dimensions":null,"purposes":["comms"],"wikipedia_slug":null,"has_3d_model":false,"image_url":null,"decayed_at":null,"tle_current":{"epoch":"2026-05-24T15:26:59.490240Z","epoch_age_seconds":116412,"freshness":"FRESH","line1":"1 56688U 23067A   26144.64374410  .00000039  00000+0  10935-4 0  9990","line2":"2 56688  43.0019 209.1084 0001400 275.1333  84.9358 15.27581756167306","mean_motion":15.27581756,"eccentricity":0.00014,"inclination_deg":43.0019,"raan_deg":209.1084,"arg_perigee_deg":275.1333,"mean_anomaly_deg":84.9358,"bstar":1.0935e-5,"rev_number":16730,"period_min":94.266640351261,"perigee_km":482.08327263166,"apogee_km":484.00440326628,"semimajor_km":6861.180837949,"source":"CELESTRAK","updated_at":"2026-05-25T13:38:18.118914Z"}}}